Weather History for Mena, AR

Change the Weather History Date:

Tuesday, January 29, 2013

  Actual Average (KFSM) Record (KFSM)
Temperature  
Mean Temperature 62 °F -  
Max Temperature 71 °F 50 °F 78 °F (1947)
Min Temperature 53 °F 29 °F 1 °F (1966)
Degree Days  
Heating Degree Days 3    
Growing Degree Days 12 (Base 50)    
Moisture  
Dew Point 64 °F    
Average Humidity 94    
Maximum Humidity 100    
Minimum Humidity 73    
Precipitation  
Precipitation 0.01 in - - ()
Sea Level Pressure  
Sea Level Pressure 29.70 in    
Wind  
Wind Speed 10 mph (South)    
Max Wind Speed 17 mph    
Max Gust Speed 40 mph    
Visibility 7 miles    
Events Rain , Thunderstorm    
Averages and records for this station are not official NWS values.
T = Trace of Precipitation, MM = Missing Value Source: NWS Daily Summary

Daily Weather History Graph

Daily Weather History Graph

Search for Another Location

Airport:

Trip Planner

Search our weather history database for the weather conditions in past years. The results will help you decide how hot, cold, wet, or windy it might be!

Date:

Astronomy

Jan. 29, 2013 Rise Set
Actual Time 7:16 AM CST 5:43 PM CST
Civil Twilight 6:50 AM CST 6:10 PM CST
Nautical Twilight 6:19 AM CST 6:40 PM CST
Astronomical Twilight 5:50 AM CST 7:10 PM CST
Moon 8:30 PM CST (1/29) 8:22 AM CST (1/29)
Length of Visible Light 11h 20m
Length of Day
10h 27m
Waning Gibbous, 93% of the Moon is Illuminated
Jan 29
Waning Gibbous
Feb 3
Last Quarter
Feb 10
New
Feb 17
First Quarter
Feb 25
Full

Hourly Weather History & Observations

Time (CST) Temp. Dew Point Humidity Pressure Visibility Wind Dir Wind Speed Gust Speed Precip Events Conditions
12:15 AM 69.8 °F 60.8 °F 73% 29.92 in 10.0 mi South 8.1 mph 21.9 mph N/A   Overcast
12:35 AM 68.0 °F 60.8 °F 78% 29.92 in 10.0 mi South 9.2 mph 21.9 mph N/A   Overcast
12:55 AM 68.0 °F 60.8 °F 78% 29.91 in 10.0 mi South 13.8 mph 21.9 mph N/A   Overcast
1:15 AM 68.0 °F 60.8 °F 78% 29.91 in 10.0 mi South 9.2 mph 19.6 mph N/A   Overcast
1:35 AM 68.0 °F 60.8 °F 78% 29.90 in 10.0 mi South 10.4 mph 17.3 mph N/A   Overcast
1:55 AM 68.0 °F 60.8 °F 78% 29.90 in 10.0 mi South 10.4 mph 19.6 mph N/A   Drizzle
2:15 AM 68.0 °F 62.6 °F 83% 29.90 in 7.0 mi South 11.5 mph 21.9 mph N/A   Drizzle
2:35 AM 68.0 °F 62.6 °F 83% 29.89 in 10.0 mi South 5.8 mph 18.4 mph N/A   Light Drizzle
2:55 AM 68.0 °F 62.6 °F 83% 29.88 in 7.0 mi South 8.1 mph 18.4 mph N/A Rain Rain
3:15 AM 68.0 °F 64.4 °F 88% 29.88 in 10.0 mi South 8.1 mph - N/A   Overcast
3:35 AM 66.2 °F 64.4 °F 94% 29.87 in 5.0 mi South 10.4 mph 19.6 mph N/A Rain Rain
3:55 AM 66.2 °F 64.4 °F 94% 29.86 in 7.0 mi South 10.4 mph 23.0 mph N/A Rain Light Rain
4:15 AM 66.2 °F 64.4 °F 94% 29.86 in 7.0 mi South 5.8 mph - N/A Rain Rain
4:35 AM 66.2 °F 64.4 °F 94% 29.86 in 10.0 mi SSE 6.9 mph - N/A   Light Drizzle
4:55 AM 66.2 °F 64.4 °F 94% 29.85 in 7.0 mi South 8.1 mph - N/A   Light Drizzle
5:15 AM 66.2 °F 66.2 °F 100% 29.84 in 7.0 mi SSE 11.5 mph 17.3 mph N/A   Light Drizzle
5:35 AM 66.2 °F 66.2 °F 100% 29.84 in 7.0 mi SSE 9.2 mph - N/A   Drizzle
5:55 AM 66.2 °F 66.2 °F 100% 29.84 in 5.0 mi SSE 6.9 mph 16.1 mph N/A Rain Light Rain
6:15 AM 66.2 °F 66.2 °F 100% 29.83 in 7.0 mi SSW 12.7 mph 19.6 mph N/A   Drizzle
6:35 AM 66.2 °F 66.2 °F 100% 29.83 in 5.0 mi South 9.2 mph 18.4 mph N/A Rain Light Rain
6:55 AM 66.2 °F 66.2 °F 100% 29.82 in 5.0 mi South 11.5 mph 19.6 mph N/A Rain Light Rain
7:15 AM 66.2 °F 66.2 °F 100% 29.82 in 5.0 mi South 9.2 mph - N/A   Drizzle
7:35 AM 66.2 °F 66.2 °F 100% 29.81 in 5.0 mi South 9.2 mph 19.6 mph N/A   Drizzle
7:55 AM 66.2 °F 66.2 °F 100% 29.81 in 3.0 mi South 6.9 mph - N/A Rain Heavy Rain
8:15 AM 68.0 °F 66.2 °F 94% 29.81 in 3.0 mi SSE 5.8 mph - N/A Rain Rain
8:35 AM 68.0 °F 68.0 °F 100% 29.80 in 3.0 mi SSE 8.1 mph - 0.01 in Rain Light Rain
8:55 AM 68.0 °F 68.0 °F 100% 29.80 in 4.0 mi South 8.1 mph 19.6 mph 0.01 in   Drizzle
9:15 AM 68.0 °F 68.0 °F 100% 29.77 in 5.0 mi SSE 8.1 mph 19.6 mph N/A   Drizzle
9:35 AM 68.0 °F 68.0 °F 100% 29.77 in 4.0 mi South 9.2 mph 20.7 mph N/A   Drizzle
9:55 AM 68.0 °F 68.0 °F 100% 29.76 in 7.0 mi South 13.8 mph 21.9 mph N/A   Light Drizzle
10:15 AM 68.0 °F 68.0 °F 100% 29.75 in 10.0 mi South 13.8 mph 20.7 mph N/A   Overcast
10:35 AM 69.8 °F 66.2 °F 88% 29.74 in 10.0 mi South 15.0 mph 28.8 mph N/A Rain Light Rain
10:55 AM 69.8 °F 66.2 °F 88% 29.74 in 4.0 mi South 13.8 mph 21.9 mph N/A Rain Heavy Rain
11:15 AM 68.0 °F 68.0 °F 100% 29.73 in 7.0 mi South 12.7 mph 23.0 mph N/A Rain Rain
11:55 AM 68.0 °F 68.0 °F 100% 29.68 in 5.0 mi South 9.2 mph 20.7 mph N/A Rain Rain
12:15 PM 68.0 °F 68.0 °F 100% 29.66 in 5.0 mi SSE 8.1 mph - N/A Rain Rain
12:35 PM 68.0 °F 68.0 °F 100% 29.64 in 4.0 mi SSE 15.0 mph 23.0 mph N/A Rain Heavy Rain
12:55 PM 69.8 °F 68.0 °F 94% 29.62 in 3.0 mi SSE 5.8 mph 19.6 mph N/A Rain , Thunderstorm Heavy Thunderstorms and Rain
1:15 PM 68.0 °F 68.0 °F 100% 29.61 in 2.5 mi South 9.2 mph - N/A Rain , Thunderstorm Light Thunderstorms and Rain
1:35 PM 69.8 °F 68.0 °F 94% 29.60 in 10.0 mi South 12.7 mph 29.9 mph N/A   Overcast
1:55 PM 69.8 °F 68.0 °F 94% 29.60 in 10.0 mi South 11.5 mph 23.0 mph N/A   Overcast
2:15 PM 69.8 °F 68.0 °F 94% 29.57 in 10.0 mi SSE 13.8 mph 21.9 mph N/A   Overcast
2:35 PM 69.8 °F 68.0 °F 94% 29.55 in 10.0 mi SSE 9.2 mph 19.6 mph N/A Rain Rain
3:15 PM 69.8 °F 68.0 °F 94% 29.54 in 10.0 mi SE 11.5 mph 24.2 mph N/A Rain Light Rain
3:35 PM 69.8 °F 68.0 °F 94% 29.53 in 10.0 mi South 12.7 mph 23.0 mph N/A   Overcast
3:55 PM 69.8 °F 68.0 °F 94% 29.52 in 7.0 mi South 10.4 mph 21.9 mph N/A Rain Rain
4:15 PM 69.8 °F 68.0 °F 94% 29.51 in 10.0 mi South 11.5 mph 25.3 mph N/A Rain , Thunderstorm Light Thunderstorms and Rain
4:35 PM 69.8 °F 68.0 °F 94% 29.51 in 4.0 mi South 13.8 mph 26.5 mph N/A Rain Heavy Rain
4:55 PM 69.8 °F 68.0 °F 94% 29.51 in 10.0 mi South 10.4 mph 32.2 mph N/A Rain , Thunderstorm Light Thunderstorms and Rain
5:15 PM 69.8 °F 68.0 °F 94% 29.51 in 5.0 mi SSW 12.7 mph 21.9 mph N/A Rain Light Rain
5:35 PM 69.8 °F 68.0 °F 94% 29.49 in 7.0 mi South 10.4 mph 24.2 mph N/A Rain , Thunderstorm Rain
5:55 PM 69.8 °F 68.0 °F 94% 29.49 in 10.0 mi South 13.8 mph 21.9 mph N/A Rain Light Rain
6:15 PM 71.6 °F 68.0 °F 88% 29.50 in 10.0 mi SSW 9.2 mph 23.0 mph N/A   Overcast
6:35 PM 60.8 °F 57.2 °F 88% 29.53 in 3.0 mi West 17.3 mph 39.1 mph N/A Rain Heavy Rain
6:55 PM 59.0 °F 59.0 °F 100% 29.54 in 4.0 mi WNW 10.4 mph 18.4 mph N/A Rain , Thunderstorm Thunderstorms and Rain
7:15 PM 57.2 °F 57.2 °F 100% 29.52 in 7.0 mi WNW 6.9 mph - N/A Rain Rain
7:55 PM 57.2 °F 57.2 °F 100% 29.57 in 10.0 mi WSW 4.6 mph - N/A Rain Rain
8:15 PM 57.2 °F 57.2 °F 100% 29.57 in 7.0 mi SW 4.6 mph - N/A Rain , Thunderstorm Thunderstorms and Rain
8:35 PM 57.2 °F 57.2 °F 100% 29.56 in 7.0 mi West 10.4 mph 18.4 mph N/A Rain Rain
8:55 PM 55.4 °F 55.4 °F 100% 29.58 in 10.0 mi West 15.0 mph 23.0 mph N/A Rain , Thunderstorm Light Thunderstorms and Rain
9:15 PM 55.4 °F 55.4 °F 100% 29.61 in 7.0 mi WSW 13.8 mph 20.7 mph N/A Rain Light Rain
9:35 PM 55.4 °F 55.4 °F 100% 29.62 in 10.0 mi West 16.1 mph 40.3 mph N/A Rain Light Rain
9:55 PM 55.4 °F 53.6 °F 94% 29.60 in 10.0 mi WNW 9.2 mph 21.9 mph N/A Rain Light Rain
10:15 PM 55.4 °F 53.6 °F 94% 29.60 in 10.0 mi Calm Calm - N/A   Overcast
10:35 PM 53.6 °F 53.6 °F 100% 29.64 in 10.0 mi South 3.5 mph - N/A   Overcast
10:55 PM 53.6 °F 53.6 °F 100% 29.62 in 10.0 mi Calm Calm - N/A   Light Drizzle
11:15 PM 53.6 °F 53.6 °F 100% 29.60 in 10.0 mi Calm Calm - N/A   Scattered Clouds
11:35 PM 53.6 °F 53.6 °F 100% 29.57 in 10.0 mi Calm Calm - N/A   Scattered Clouds